Tracking 19709 objects as of 18-Jun-2019
HD Live streaming from Space Station
objects crossing your sky now

RADUGA 20

Track RADUGA 20 now!
RADUGA 20 is classified as:


NORAD ID: 17611
Int'l Code: 1987-028A
Perigee: 36,931.7 km
Apogee: 37,162.1 km
Inclination: 16.5 °
Period: 1,500.6 minutes
Semi major axis: 43417 km
RCS: 2.0634 m2 (large)
Launch date: March 19, 1987
Source: Commonwealth of Independent States (former USSR) (CIS)
Launch site: TYURATAM MISSILE AND SPACE COMPLEX (TTMTR)
aabbcc
Your satellite tracking list
Your tracking list is empty




NASA's NSSDC Master Catalog

Two Line Element Set (TLE):
1 17611U 87028A   19167.43211596 -.00000127 +00000-0 +00000-0 0  9997
2 17611 016.5321 349.0674 0026528 102.4278 261.7926 00.95962129113771
Source of the keplerian elements: AFSPC